Location: *
(50.9167°S, 179.4000°W)
Time: 21:41:39
(UTC+00:00)

CZ-2C R/B - Pass Details

Date: 03 March 2024
Orbit: 666 x 779 km, 98.4° (Epoch: 16 April)

Event Time Altitude Azimuth Distance (km) Brightness Sun altitude
Exits shadow 16:12:02 14° 270° (W) 2,061 4.2 -12.7°
Maximum altitude 16:12:23 14° 265° (W) 2,058 4.2 -12.6°
Drops below altitude 10° 16:15:08 10° 233° (SW) 2,362 4.8 -12.3°
Sets 16:18:41 0° 209° (SSW) 3,307 5.8 -11.8°
